Flag for U.S.A. Weather past 2 weeks in Roanoke, Virginia, U.S.A.

Now
27 °F

Overcast.


Feels Like: 18 °F
Forecast: 23 / 33 °F
Wind: 9 mph from Northwest

Location: Roanoke Regional Airport

Current Time: Feb 27, 2015 at 8:15:22 AM

Latest Report: Feb 27, 2015 at 7:54 AM


Visibility: 10 mi

Pressure: 30.36 "Hg

Humidity: 58%

Dew point: 14 °F

Location of RoanokeLocation

Historic Weather in Roanoke — Graph

°F

Roanoke temperature yesterday

Maximum temperature yesterday: 38 °F (at 3:54 PM)
Minimum temperature yesterday: 29 °F (at 3:03 AM)
Average temperature yesterday: 33 °F

Past Weeks' High & Low Weather Summary

 TemperatureHumidityPressure
High51 °F (Feb 22, 2:54 PM)96% (Feb 21, 11:54 PM)30.51 "Hg (Feb 21, 11:54 PM)
Low1 °F (Feb 20, 5:54 AM)22% (Feb 13, 12:54 PM)29.61 "Hg (Feb 14, 3:54 PM)
Average23 °F56%30.12 "Hg
* Reported Feb 12 6:54 AM — Feb 27 6:54 AM, Roanoke, Weather by CustomWeather, © 2015

Note: Actual official high and low records may vary slightly from our data, if they occured in-between our weather recording intervals... More about our weather records

Advertising

Roanoke weather history for previous 24 hours

 ConditionsComfort  
Time TempWeatherWind HumidityBarometerVisibility
6:54 AM
Fri, Feb 27
25 °FScattered clouds.8 mph63%30.33 "Hg10 mi
5:54 AM28 °FPassing clouds.8 mph58%30.29 "Hg10 mi
4:54 AM30 °FClear.10 mph54%30.24 "Hg10 mi
3:54 AM29 °FClear.9 mph61%30.21 "Hg10 mi
2:54 AM31 °FClear.13 mph59%30.20 "Hg10 mi
1:54 AM33 °FOvercast.8 mph63%30.19 "Hg10 mi
12:54 AM32 °FOvercast.3 mph66%30.17 "Hg10 mi
11:54 PM
Thu, Feb 26
33 °FClear.7 mph58%30.15 "Hg10 mi
10:54 PM35 °FPassing clouds.9 mph59%30.14 "Hg10 mi
9:54 PM35 °FOvercast.6 mph72%30.12 "Hg10 mi
8:54 PM35 °FOvercast.No wind75%30.09 "Hg10 mi
7:54 PM35 °FOvercast.3 mph78%30.08 "Hg10 mi
6:54 PM36 °FOvercast.5 mph73%30.05 "Hg10 mi
5:54 PM36 °FOvercast.6 mph73%30.01 "Hg10 mi
4:54 PM38 °FOvercast.No wind63%29.98 "Hg10 mi
3:54 PM38 °FOvercast.3 mph60%29.95 "Hg10 mi
2:54 PM37 °FOvercast.No wind62%29.92 "Hg10 mi
1:54 PM36 °FMostly cloudy.3 mph64%29.91 "Hg10 mi
12:54 PM36 °FBroken clouds.No wind64%29.91 "Hg10 mi
11:54 AM35 °FMostly cloudy.5 mph64%29.91 "Hg10 mi
10:54 AM34 °FOvercast.8 mph70%29.89 "Hg10 mi
9:54 AM32 °FOvercast.8 mph75%29.87 "Hg10 mi
8:54 AM30 °FMore clouds than sun.8 mph85%29.88 "Hg10 mi
Weather by CustomWeather, © 2015

See weather overviewHow to use our weather pages